Home   Weather   La-Chaux-de-Fonds   Past weeks

Flag for Switzerland Past Weather in La-Chaux-de-Fonds, Neuchâtel, Switzerland — Yesterday and Last 2 Weeks

Now
16 °F

Light snow. Low clouds.


Feels Like: 1 °F
Forecast: 2 / 19 °F
Wind: 14 mph from Northeast

Location: Les Eplatures

Current Time: Jan 18, 2017 at 11:21:18 pm

Latest Report: Jan 18, 2017 at 10:50 pm


Visibility: 2 mi

Pressure: 30.21 "Hg (26.54 "Hg at 1000m altitude)

Humidity: 100%

Dew Point: 16 °F

Location of La-Chaux-de-FondsLocation

Past Weather in La-Chaux-de-Fonds — Graph

°F

La-Chaux-de-Fonds Temperature Yesterday

Maximum temperature yesterday: 25 °F (at 2:50 pm)
Minimum temperature yesterday: 16 °F (at 1:20 am)
Average temperature yesterday: 17 °F

High & Low Weather Summary for the Past Weeks

 TemperatureHumidityPressure
High39 °F (Jan 12, 7:20 pm)100% (Jan 4, 2:20 am)30.42 "Hg (Jan 4, 2:20 am)
Low1 °F (Jan 7, 3:20 am)51% (Jan 7, 2:20 pm)29.50 "Hg (Jan 12, 10:50 pm)
Average22 °F94%30.08 "Hg
* Reported Jan 3 9:20 pm — Jan 18 9:50 pm, La-Chaux-de-Fonds, Weather by CustomWeather, © 2017

Note: Actual official high and low records may vary slightly from our data, if they occured in-between our weather recording intervals... More about our weather records

Advertising

La-Chaux-de-Fonds Weather History for the Previous 24 Hours

Scroll right to see more
 ConditionsComfort  
Time TempWeatherWind HumidityBarometerVisibility
9:50 pm
Wed, Jan 18
16 °FLight snow. Low clouds.13 mph100%30.21 "Hg2 mi
9:20 pm18 °FLight snow. Overcast.10 mph86%30.21 "Hg2 mi
8:50 pm18 °FLight snow. Partly cloudy.9 mph86%30.21 "Hg2 mi
8:20 pm16 °FLight snow. Partly cloudy.8 mph100%30.21 "Hg2 mi
7:50 pm18 °FLight snow. Passing clouds.10 mph93%30.21 "Hg2 mi
7:20 pm16 °FLight snow. Partly cloudy.12 mph100%30.21 "Hg2 mi
6:50 pm16 °FLight snow. Passing clouds.10 mph93%30.21 "Hg2 mi
6:20 pm16 °FLight snow. Passing clouds.12 mph93%30.21 "Hg3 mi
5:50 pm16 °FLight snow. Partly sunny.14 mph93%30.21 "Hg2 mi
5:20 pm16 °FLight snow. Overcast.13 mph93%30.21 "Hg3 mi
4:50 pm16 °FLight snow. Partly sunny.14 mph93%30.21 "Hg3 mi
4:20 pm18 °FLight snow. Partly sunny.14 mph86%30.21 "Hg2 mi
3:50 pm18 °FSnow flurries. Partly sunny.13 mph93%30.21 "Hg2 mi
3:20 pm18 °FPartly sunny.12 mph86%30.18 "Hg5 mi
2:50 pm19 °FPartly sunny.13 mph79%30.18 "Hg6 mi
2:20 pm19 °FPartly sunny.16 mph79%30.18 "Hg6 mi
1:50 pm19 °FLight snow. Partly sunny.13 mph79%30.18 "Hg3 mi
1:20 pm19 °FLight snow. Partly sunny.10 mph79%30.18 "Hg3 mi
12:50 pm18 °FLight snow. Overcast.12 mph79%30.18 "Hg6 mi
12:20 pm18 °FLight snow. Partly sunny.10 mph79%30.18 "HgN/A
11:50 am18 °FLight snow. Partly sunny.12 mph79%30.18 "Hg3 mi
11:20 am18 °FLight snow. Partly sunny.12 mph79%30.18 "Hg3 mi
10:50 am16 °FLight snow. Partly sunny.12 mph86%30.18 "Hg3 mi
10:20 am16 °FLight snow. Partly sunny.10 mph86%30.18 "Hg2 mi
9:50 am16 °FLight snow. Partly sunny.10 mph86%30.18 "Hg3 mi
9:20 am14 °FLight snow. Partly sunny.9 mph92%30.18 "Hg3 mi
8:50 am14 °FLight snow. Overcast.12 mph92%30.18 "Hg2 mi
8:20 am14 °FLight snow. Overcast.8 mph92%30.15 "Hg2 mi
7:50 am14 °FLight snow. Overcast.10 mph92%30.15 "Hg2 mi
7:20 am14 °FLight snow. Overcast.9 mph92%30.15 "Hg2 mi
6:50 am14 °FLight snow. Partly cloudy.13 mph92%30.12 "Hg2 mi
6:20 am14 °FLight snow. Partly cloudy.12 mph92%30.12 "Hg2 mi
5:50 am14 °FLight snow. Passing clouds.16 mph92%30.12 "Hg3 mi
5:20 am14 °FLight snow. Overcast.15 mph92%30.12 "Hg2 mi
4:50 am14 °FLight snow. Overcast.13 mph92%30.12 "Hg2 mi
4:20 am14 °FLight snow. Partly cloudy.14 mph92%30.12 "Hg2 mi
3:50 am14 °FLight snow. Partly cloudy.14 mph100%30.12 "Hg2 mi
3:20 am14 °FLight snow. Passing clouds.12 mph100%30.15 "Hg2 mi
2:50 am16 °FLight snow. Ice fog.13 mph93%30.15 "Hg2 mi
2:20 am16 °FLight snow. Ice fog.15 mph93%30.15 "Hg2 mi
1:50 am16 °FLight snow. Passing clouds.15 mph93%30.15 "Hg2 mi
1:20 am16 °FLight snow. Partly cloudy.14 mph93%30.12 "Hg2 mi
12:50 am16 °FLight snow. Ice fog.16 mph93%30.15 "Hg1 mi
12:20 am16 °FLight snow. Passing clouds.15 mph93%30.15 "Hg2 mi
11:50 pm
Tue, Jan 17
16 °FLight snow. Partly cloudy.18 mph93%30.15 "Hg1 mi
11:20 pm16 °FLight snow. Partly cloudy.22 mph93%30.15 "Hg2 mi
Weather by CustomWeather, © 2017

See weather overviewHow to use our weather pages